Location: Unspecified
(52.4292°N, 19.3359°E)
Time: 17:07:12
(UTC+02:00)

Transit 2A Rocket - Pass Details

Date: 21 May 2024
Orbit: 583 x 910 km, 66.7° (Epoch: 22 June)

Event Time Altitude Azimuth Distance (km) Brightness Sun altitude
Rises 11:26:35 0° 318° (NW) 3,323 8.0 54.9°
Reaches altitude 10° 11:29:09 10° 327° (NNW) 2,439 7.4 55.1°
Maximum altitude 11:34:22 36° 34° (NNE) 1,352 6.6 55.5°
Drops below altitude 10° 11:39:52 10° 100° (E) 2,573 8.1 55.9°
Sets 11:42:39 0° 109° (ESE) 3,529 8.7 56.1°
